Total_Precipitation_Accumulation
3.55 4.01 4.00 4.06 3.72 3.86 4.26 4.62 4.58 4.84 5.15 4.97 4.37 4.10 4.25 4.13 3.83 3.56 3.77 3.99 4.09 4.16 4.69 5.07 4.72 4.42 4.24 3.84 3.44 3.25 3.09 3.08 2.92 2.66 2.43 2.32 2.27 2.11 1.88 1.85 1.68 1.55 1.44
3.74 4.15 4.13 4.07 3.72 3.70 4.04 4.43 4.48 4.82 4.95 4.98 4.37 3.97 4.00 3.93 3.59 3.27 3.33 3.83 3.95 3.94 4.26 4.79 4.94 4.90 4.63 4.29 3.91 3.54 3.27 3.19 3.14 2.95 2.63 2.39 2.33 2.33 2.31 2.13 1.93 1.82 1.68
3.99 4.34 4.30 3.91 3.69 3.79 4.02 4.03 4.17 4.66 4.56 4.46 4.35 4.17 4.03 3.82 3.45 3.44 3.36 3.57 3.43 3.63 4.04 4.26 4.61 4.97 5.04 4.93 4.72 4.23 3.85 3.38 3.10 2.92 2.69 2.46 2.33 2.21 2.24 2.28 2.15 2.02 1.87
3.62 4.05 3.75 3.32 3.43 3.69 4.02 4.07 3.96 4.34 4.57 4.54 4.56 4.32 4.02 3.83 3.41 3.32 3.31 3.28 3.30 3.09 3.50 3.95 4.38 4.73 5.16 5.46 5.55 5.37 4.89 4.14 3.52 3.16 2.80 2.59 2.43 2.19 1.99 1.98 2.07 2.07 1.90
2.70 3.10 3.10 3.01 3.00 3.40 3.67 3.24 3.45 3.78 4.04 4.28 3.88 3.76 3.35 3.18 3.15 2.92 2.84 2.74 3.00 3.19 3.38 3.50 3.95 4.32 5.03 5.90 6.44 6.40 5.92 5.01 4.18 3.69 3.35 3.03 2.87 2.54 2.13 1.93 1.97 1.95 1.87
2.51 2.83 2.84 2.67 2.64 3.00 3.29 3.47 3.68 3.70 3.52 3.62 3.07 3.08 3.05 2.83 2.89 2.85 2.62 2.59 2.73 2.69 3.02 3.40 3.79 3.65 4.28 5.31 6.07 6.31 6.22 5.75 4.92 4.23 3.88 3.71 3.63 3.23 2.67 2.36 2.23 2.09 1.97
2.59 2.98 2.78 2.89 2.74 2.86 3.05 3.15 3.34 3.39 3.16 3.31 3.63 3.49 3.14 2.84 2.82 2.74 2.63 2.71 2.75 2.86 3.08 3.55 3.80 3.89 3.82 3.90 4.37 5.16 5.86 6.22 6.05 5.31 4.62 4.23 4.14 3.68 3.04 2.77 2.53 2.36 2.35
2.49 2.48 2.83 2.70 2.65 2.96 3.00 3.15 3.34 3.24 2.91 3.10 3.63 3.90 3.71 3.72 3.14 2.39 2.55 2.68 2.76 3.06 3.08 3.04 3.34 3.95 4.05 4.26 3.63 4.00 5.22 6.02 6.64 6.63 5.84 4.95 4.56 4.08 3.49 3.19 2.92 2.72 2.61
2.15 2.33 2.45 2.44 2.62 2.59 2.89 3.11 3.16 3.35 3.34 3.10 3.08 3.59 3.66 3.70 3.40 2.76 2.38 2.50 2.83 3.19 3.21 3.19 3.16 3.53 3.85 4.40 4.29 3.86 4.30 4.81 5.86 6.87 6.94 5.99 4.85 4.03 3.67 3.59 3.51 3.23 2.98
2.15 2.24 2.34 2.53 2.66 2.52 2.92 2.65 2.84 3.28 3.52 3.19 3.15 3.03 3.10 3.31 3.40 3.28 2.84 2.51 2.67 2.83 3.06 3.07 3.11 3.43 3.70 3.95 4.07 3.50 3.33 3.61 4.50 5.73 6.64 6.65 5.76 4.65 4.03 4.08 4.34 4.16 3.78
2.30 2.12 2.40 2.74 2.85 2.69 2.75 2.82 3.22 3.20 3.23 3.20 3.16 3.08 3.17 3.24 3.04 3.10 3.09 2.88 2.66 2.31 2.44 2.78 3.10 3.30 3.46 3.67 3.93 3.53 3.41 3.28 3.34 3.85 4.59 5.37 5.86 5.61 5.14 5.03 5.36 5.58 5.36
2.39 2.25 2.45 2.77 2.79 2.88 2.92 2.89 3.03 3.11 3.26 3.35 3.23 2.99 3.04 3.11 3.14 3.28 2.97 2.91 2.91 2.50 2.52 2.77 2.91 3.15 3.19 3.39 3.28 3.20 3.19 3.23 3.12 3.04 3.27 3.72 4.40 5.09 5.44 5.69 6.04 6.35 6.47
2.10 2.24 2.39 2.68 2.69 2.73 2.70 2.96 3.02 3.03 3.17 3.19 3.11 3.05 2.93 2.85 2.91 3.07 3.10 2.88 2.83 2.65 2.82 2.76 2.77 2.88 2.85 3.22 3.39 3.31 2.82 2.92 2.82 2.69 2.73 2.96 3.27 3.90 4.61 5.15 5.69 6.21 6.56
1.72 1.89 2.13 2.22 2.30 2.35 2.35 2.97 2.90 2.96 3.14 3.00 2.75 3.18 3.02 2.68 2.81 2.92 3.24 3.51 3.24 3.04 3.03 2.86 2.80 2.84 2.99 3.20 3.38 3.34 2.81 2.85 2.72 2.49 2.30 2.25 2.38 2.65 3.13 3.57 4.05 4.55 5.03
1.79 1.87 1.94 2.21 2.37 2.47 2.60 2.93 2.88 2.87 3.09 2.88 2.82 2.98 2.86 2.78 2.76 2.67 3.10 3.55 3.79 3.53 3.21 3.00 2.73 2.63 2.78 2.96 3.11 2.73 2.60 2.72 2.57 2.40 2.17 2.00 1.97 2.11 2.33 2.55 2.70 2.84 3.03
1.91 2.07 2.13 2.31 2.46 2.47 2.55 2.78 2.71 2.82 3.00 2.89 2.91 2.93 2.80 2.74 2.87 2.76 2.88 3.21 3.51 3.72 3.39 2.82 2.63 2.48 2.49 2.32 2.58 2.30 2.38 2.61 2.39 2.24 2.06 1.96 1.89 1.92 2.01 2.12 2.21 2.22 2.27
2.00 2.11 2.22 2.39 2.44 2.53 2.67 2.82 2.62 2.77 2.92 3.09 2.96 2.96 3.01 3.14 3.08 2.97 3.05 3.13 3.34 3.66 3.52 2.90 2.78 2.73 2.58 2.34 2.34 2.25 2.19 2.31 2.32 2.44 2.24 2.03 1.82 1.72 1.76 1.84 1.89 1.97 2.08
2.32 2.28 2.34 2.42 2.34 2.42 2.68 2.72 2.66 2.74 2.80 2.81 2.99 3.30 3.22 3.30 3.24 3.07 3.20 3.13 3.27 3.68 3.51 3.11 3.05 3.06 2.99 2.74 2.61 2.39 2.12 2.10 2.26 2.57 2.34 2.15 1.92 1.78 1.77 1.80 1.83 1.82 1.83
2.60 2.65 2.64 2.51 2.45 2.46 2.56 2.66 2.76 2.78 2.77 2.81 2.97 3.06 3.14 3.43 3.28 3.19 3.10 3.07 3.22 3.43 3.61 3.26 3.11 3.35 3.18 2.87 2.77 2.43 2.19 2.31 2.08 2.25 2.27 2.26 2.14 1.95 1.84 1.76 1.81 1.82 1.78
2.67 2.81 2.78 2.72 2.65 2.53 2.40 2.40 2.48 2.59 2.72 2.85 2.90 2.85 2.95 3.20 3.30 3.33 3.11 3.14 3.32 3.44 3.53 3.39 3.21 3.33 3.35 3.25 3.09 2.79 2.67 2.51 2.32 2.16 2.29 2.28 2.25 2.07 1.88 1.72 1.75 1.78 1.78
2.64 2.82 2.87 2.90 2.86 2.64 2.34 2.44 2.63 2.61 2.79 2.78 2.69 2.59 2.60 2.86 3.10 3.21 2.91 3.01 3.23 3.24 3.23 3.24 3.20 3.28 3.34 3.50 3.31 2.99 2.75 2.62 2.39 2.20 2.28 2.17 2.19 2.06 1.94 1.90 1.86 1.77 1.59
3.04 3.07 2.93 2.86 2.78 2.34 2.53 2.61 2.63 2.66 2.83 2.82 2.72 2.63 2.51 2.45 2.46 2.64 2.75 2.90 3.07 3.06 3.06 3.25 3.37 3.43 3.44 3.53 3.54 3.30 2.98 2.77 2.52 2.28 2.45 2.43 2.39 2.36 2.09 1.83 1.86 1.79 1.61
3.45 3.41 3.23 3.02 2.83 2.77 2.77 2.55 2.53 2.38 2.44 2.53 2.64 2.61 2.27 2.04 2.19 2.13 2.37 2.52 2.59 2.68 2.80 3.05 3.20 3.24 3.40 3.58 3.73 3.42 3.21 3.00 2.73 2.49 2.59 2.41 2.34 2.37 2.23 2.06 2.11 1.87 1.75
3.42 3.42 3.30 3.14 2.98 2.86 2.82 2.55 2.54 2.27 2.22 2.26 2.36 2.40 2.32 2.18 2.16 2.31 2.31 2.21 2.09 2.15 2.38 2.43 2.53 2.83 3.10 3.36 3.60 3.50 3.46 3.15 2.79 2.57 2.57 2.38 2.23 2.24 2.26 2.27 2.26 2.02 1.81
3.29 3.15 3.03 3.01 2.97 3.02 3.10 2.80 2.63 2.29 2.27 2.21 2.20 2.20 2.22 2.13 2.35 2.36 2.25 2.19 2.17 2.13 2.22 2.34 2.33 2.48 2.74 2.90 3.09 3.25 3.26 3.15 2.85 2.65 2.66 2.61 2.38 2.33 2.30 2.23 2.09 2.09 1.88
3.27 3.16 2.97 2.96 2.98 2.97 3.13 2.74 2.59 2.31 2.27 2.21 2.23 2.24 2.28 2.21 2.29 2.20 2.08 2.16 2.10 2.07 2.17 2.17 2.17 2.18 2.24 2.58 2.96 2.81 2.90 3.02 2.80 2.50 2.29 2.43 2.44 2.57 2.48 2.14 1.93 1.83 1.78